EDT,Max TemperatureF,Mean TemperatureF,Min TemperatureF,Max Dew PointF,MeanDew PointF,Min DewpointF,Max Humidity, Mean Humidity, Min Humidity, Max Sea Level PressureIn, Mean Sea Level PressureIn, Min Sea Level PressureIn, Max VisibilityMiles, Mean VisibilityMiles, Min VisibilityMiles, Max Wind SpeedMPH, Mean Wind SpeedMPH, Max Gust SpeedMPH,PrecipitationIn, CloudCover, Events, WindDirDegrees
2012-10-1,62,61,59,61,58,55,100,92,84,29.93,29.89,29.86,10,5,1,16,6,20,0.04,7,Rain,78
2012-10-2,82,72,62,72,67,61,100,85,69,29.96,29.86,29.81,10,5,0,21,6,26,0.38,7,Fog-Rain,95
2012-10-3,81,75,69,72,66,61,100,77,54,30.17,30.06,29.96,10,7,2,12,5,21,T,4,Fog,232
2012-10-4,79,70,61,63,60,56,93,72,50,30.23,30.18,30.15,10,10,10,14,5,18,0.01,3,Rain,269
2012-10-5,79,67,55,58,55,51,93,66,39,30.19,30.11,30.01,10,10,10,12,3,15,0.00,0,,234
2012-10-6,79,67,55,61,57,50,97,73,48,30.00,29.95,29.89,10,9,3,15,7,18,0.12,4,,268
2012-10-7,55,52,49,52,49,46,93,88,83,30.15,30.06,29.99,10,8,1,18,8,28,0.39,8,Rain-Thunderstorm,33
2012-10-8,49,47,44,46,43,41,100,89,77,30.23,30.18,30.15,10,6,2,18,8,22,0.08,8,Rain,32
2012-10-9,57,51,45,51,46,43,100,86,72,30.19,30.13,30.09,10,8,2,10,4,15,0.01,8,Rain,25
2012-10-10,71,60,48,51,48,44,93,70,47,30.13,30.05,29.99,10,10,8,20,8,24,0.00,3,,278
2012-10-11,66,54,42,45,40,34,89,60,31,30.30,30.23,30.14,10,10,10,12,4,15,0.00,0,,281
2012-10-12,72,59,45,50,44,40,86,61,35,30.33,30.22,30.17,10,10,10,18,4,22,0.00,0,,316
2012-10-13,65,54,42,47,41,37,93,66,39,30.49,30.39,30.33,10,10,10,16,5,21,0.00,0,,60
2012-10-14,72,59,46,59,52,44,93,73,53,30.32,30.18,30.01,10,10,10,17,7,23,0.00,3,,207
2012-10-15,73,64,54,64,57,40,93,70,47,30.00,29.86,29.71,10,9,1,17,8,22,0.57,6,Rain,235
2012-10-16,69,56,42,47,42,39,86,61,35,29.97,29.91,29.86,10,10,10,10,2,16,0.00,0,,275
2012-10-17,70,58,46,48,45,43,93,65,37,29.99,29.94,29.90,10,10,10,14,6,18,0.00,0,,183
2012-10-18,74,61,48,63,55,46,93,77,61,29.92,29.84,29.77,10,9,1,24,6,32,0.83,4,Rain-Thunderstorm,202
2012-10-19,71,61,50,59,50,35,100,66,31,29.77,29.74,29.68,10,7,1,20,6,24,0.00,2,Fog,235
2012-10-20,68,56,44,42,40,38,76,56,35,29.98,29.83,29.74,10,10,10,14,4,20,0.00,1,,295
2012-10-21,66,55,44,44,39,37,80,59,37,30.16,30.09,29.99,10,10,10,12,3,16,0.00,0,,2
2012-10-22,76,60,43,51,45,40,89,61,33,30.23,30.18,30.14,10,10,10,6,1,12,0.00,0,,185
2012-10-23,78,63,48,53,49,46,93,65,36,30.18,30.14,30.09,10,10,9,14,6,18,0.00,0,,222
2012-10-24,81,66,51,54,51,47,89,63,36,30.19,30.13,30.08,10,10,10,12,4,22,0.00,0,,215
2012-10-25,77,64,50,56,54,49,93,70,47,30.16,30.12,30.09,10,10,7,10,3,13,0.00,1,,165
2012-10-26,65,60,54,58,56,53,100,89,78,30.15,30.07,29.96,10,5,0,14,7,18,0.00,4,Fog,33
2012-10-27,70,65,60,59,55,48,97,75,53,29.96,29.82,29.74,10,8,3,20,12,26,T,5,,29
2012-10-28,68,60,51,50,46,39,77,61,45,29.74,29.67,29.60,10,10,10,21,11,31,0.00,4,,3
2012-10-29,51,47,43,37,33,28,70,62,53,29.62,29.52,29.34,10,10,10,35,20,46,0.01,8,Rain,309
2012-10-30,49,44,39,31,28,26,65,54,42,29.60,29.42,29.31,10,10,10,33,18,44,T,7,Rain,276
2012-10-31,52,44,35,34,32,30,82,65,48,29.77,29.69,29.60,10,10,10,20,9,24,T,4,Rain,262